TimeEST,TemperatureF,Dew PointF,Humidity,Sea Level PressureIn,VisibilityMPH,Wind Direction,Wind SpeedMPH,Gust SpeedMPH,PrecipitationIn,Events,Conditions,WindDirDegrees,DateUTC
12:15 AM,28.4,12.2,51,30.05,10.0,NW,6.9,-,N/A,,Clear,310,2013-01-21 05:15:00
12:35 AM,28.4,12.2,51,30.05,10.0,NW,11.5,-,N/A,,Clear,310,2013-01-21 05:35:00
12:55 AM,26.6,12.2,55,30.05,10.0,NW,9.2,-,N/A,,Clear,310,2013-01-21 05:55:00
1:15 AM,26.6,12.2,55,30.06,10.0,NW,6.9,16.1,N/A,,Clear,320,2013-01-21 06:15:00
1:35 AM,26.6,10.4,51,30.07,10.0,WNW,4.6,-,N/A,,Clear,290,2013-01-21 06:35:00
1:55 AM,26.6,10.4,51,30.08,10.0,WNW,6.9,-,N/A,,Clear,300,2013-01-21 06:55:00
2:15 AM,26.6,8.6,47,30.08,10.0,WNW,4.6,-,N/A,,Clear,290,2013-01-21 07:15:00
2:35 AM,26.6,8.6,47,30.08,10.0,Calm,Calm,-,N/A,,Clear,0,2013-01-21 07:35:00
2:55 AM,24.8,10.4,54,30.08,10.0,WNW,3.5,-,N/A,,Clear,290,2013-01-21 07:55:00
3:15 AM,24.8,10.4,54,30.08,10.0,West,3.5,-,N/A,,Clear,260,2013-01-21 08:15:00
3:35 AM,23.0,12.2,63,30.08,10.0,WSW,3.5,-,N/A,,Clear,240,2013-01-21 08:35:00
3:55 AM,23.0,14.0,68,30.08,10.0,SSW,3.5,-,N/A,,Clear,210,2013-01-21 08:55:00
4:15 AM,23.0,12.2,63,30.07,10.0,Calm,Calm,-,N/A,,Clear,0,2013-01-21 09:15:00
4:35 AM,23.0,12.2,63,30.08,10.0,Calm,Calm,-,N/A,,Clear,0,2013-01-21 09:35:00
4:55 AM,21.2,14.0,74,30.07,10.0,Calm,Calm,-,N/A,,Clear,0,2013-01-21 09:55:00
5:15 AM,21.2,15.8,80,30.07,10.0,Calm,Calm,-,N/A,,Clear,0,2013-01-21 10:15:00
5:35 AM,21.2,15.8,80,30.08,10.0,Calm,Calm,-,N/A,,Clear,0,2013-01-21 10:35:00
7:45 AM,24.8,12.2,59,30.08,10.0,Calm,Calm,-,N/A,,Overcast,0,2013-01-21 12:45:00
8:45 AM,24.8,10.4,54,30.09,10.0,Calm,Calm,-,N/A,,Overcast,0,2013-01-21 13:45:00
9:45 AM,26.6,12.2,55,30.09,10.0,West,4.6,-,N/A,,Overcast,260,2013-01-21 14:45:00
10:45 AM,28.4,10.4,47,30.06,10.0,SW,4.6,-,N/A,,Overcast,220,2013-01-21 15:45:00
11:45 AM,28.4,10.4,47,30.02,10.0,SW,4.6,-,N/A,,Overcast,230,2013-01-21 16:45:00
12:45 PM,30.2,28.4,93,29.98,10.0,SW,6.9,-,N/A,,Overcast,220,2013-01-21 17:45:00
1:45 PM,30.2,12.2,47,29.96,10.0,WSW,12.7,18.4,N/A,,Overcast,250,2013-01-21 18:45:00
2:11 PM,30.2,14.0,51,29.95,8.0,West,5.8,16.1,N/A,,Overcast,260,2013-01-21 19:11:00
2:45 PM,30.2,14.0,51,29.94,8.0,SW,11.5,-,N/A,,Overcast,230,2013-01-21 19:45:00
3:45 PM,30.2,14.0,51,29.91,8.0,West,5.8,-,N/A,,Overcast,280,2013-01-21 20:45:00
4:45 PM,30.2,14.0,51,29.90,10.0,South,4.6,-,N/A,,Overcast,190,2013-01-21 21:45:00
5:45 PM,28.4,15.8,59,29.90,10.0,Calm,Calm,-,N/A,,Overcast,0,2013-01-21 22:45:00
6:45 PM,28.4,19.4,69,29.89,10.0,North,3.5,-,N/A,,Overcast,10,2013-01-21 23:45:00
7:45 PM,28.4,17.6,64,29.89,7.0,Calm,Calm,-,N/A,,Overcast,0,2013-01-22 00:45:00
8:45 PM,28.4,17.6,64,29.87,10.0,NW,4.6,-,N/A,,Overcast,310,2013-01-22 01:45:00
9:45 PM,26.6,17.6,69,29.87,10.0,NW,4.6,-,N/A,,Overcast,310,2013-01-22 02:45:00
9:55 PM,26.6,19.4,74,29.86,10.0,West,6.9,-,N/A,,Scattered Clouds,270,2013-01-22 02:55:00
10:15 PM,26.6,19.4,74,29.85,10.0,WNW,8.1,-,N/A,,Scattered Clouds,290,2013-01-22 03:15:00
10:35 PM,24.8,19.4,80,29.85,10.0,Calm,Calm,-,N/A,,Clear,0,2013-01-22 03:35:00
10:55 PM,24.8,17.6,74,29.85,10.0,WSW,5.8,-,N/A,,Clear,250,2013-01-22 03:55:00
11:15 PM,24.8,17.6,74,29.85,10.0,West,8.1,-,N/A,,Clear,270,2013-01-22 04:15:00
11:35 PM,24.8,15.8,69,29.85,10.0,West,8.1,16.1,N/A,,Clear,280,2013-01-22 04:35:00
11:55 PM,24.8,12.2,59,29.85,10.0,West,6.9,-,N/A,,Clear,280,2013-01-22 04:55:00